EW2310 Weather Reports


Display with metric or nautical units.
time (UTC)temp
F
wind
direction
speed
MPH
gust
MPH
rain 1hr
in
rain 24hr
in
rain mn
in
humidity
%
barometer
mb
20260904201042 82 306 0.0 0.0 0.00 0.00 0.00 51 1017.0
20260904200539 83 306 0.0 0.0 0.00 0.00 0.00 51 1017.1
20260904200039 83 306 0.0 0.0 0.00 0.00 0.00 51 1017.1
20260904195542 83 306 0.0 0.0 0.00 0.00 0.00 52 1017.1
20260904195039 83 306 0.0 0.0 0.00 0.00 0.00 52 1017.2
20260904194539 83 306 0.0 0.0 0.00 0.00 0.00 53 1017.2
20260904194039 83 306 0.0 0.0 0.00 0.00 0.00 52 1017.2
20260904193539 83 306 0.0 0.0 0.00 0.00 0.00 53 1017.2
20260904193042 83 306 0.0 0.0 0.00 0.00 0.00 51 1017.2
20260904192539 83 306 0.0 0.0 0.00 0.00 0.00 51 1017.1
20260904192039 84 306 0.0 0.0 0.00 0.00 0.00 51 1017.1
20260904191539 84 306 0.0 0.0 0.00 0.00 0.00 50 1017.1
20260904191039 84 306 0.0 0.0 0.00 0.00 0.00 50 1017.1
20260904190539 84 306 0.0 0.0 0.00 0.00 0.00 50 1017.0
20260904190039 84 306 0.0 0.0 0.00 0.00 0.00 50 1017.0
20260904185539 85 306 0.0 0.0 0.00 0.00 0.00 50 1017.0
20260904185039 85 306 0.0 0.0 0.00 0.00 0.00 50 1016.9
20260904184539 85 306 0.0 0.0 0.00 0.00 0.00 49 1016.9
20260904184039 84 306 0.0 0.0 0.00 0.00 0.00 49 1016.9
20260904183539 84 306 0.0 0.0 0.00 0.00 0.00 50 1016.8
20260904183039 84 306 0.0 0.0 0.00 0.00 0.00 50 1016.8
20260904182539 85 306 0.0 0.0 0.00 0.00 0.00 50 1016.7
20260904182039 85 306 0.0 0.0 0.00 0.00 0.00 50 1016.7
20260904181539 85 306 0.0 0.0 0.00 0.00 0.00 50 1016.6
20260904181039 85 306 0.0 0.0 0.00 0.00 0.00 50 1016.5
20260904180539 85 306 0.0 1.0 0.00 0.00 0.00 50 1016.4
20260904180042 85 306 0.0 0.0 0.00 0.00 0.00 49 1016.4
20260904175539 85 306 0.0 0.0 0.00 0.00 0.00 48 1016.3
20260904175039 85 306 0.0 0.0 0.00 0.00 0.00 49 1016.3
20260904174542 86 306 0.0 0.0 0.00 0.00 0.00 49 1016.3
20260904174039 86 306 0.0 0.0 0.00 0.00 0.00 49 1016.3
20260904173539 86 306 0.0 0.0 0.00 0.00 0.00 49 1016.2
20260904173039 86 306 0.0 0.0 0.00 0.00 0.00 48 1016.2
20260904172539 86 306 0.0 0.0 0.00 0.00 0.00 48 1016.3
20260904172039 86 306 0.0 1.0 0.00 0.00 0.00 48 1016.3
20260904171539 86 306 0.0 1.0 0.00 0.00 0.00 50 1016.3
20260904171039 87 306 0.0 1.0 0.00 0.00 0.00 51 1016.3
20260904170539 87 304 0.0 1.0 0.00 0.00 0.00 50 1016.3
20260904170039 87 302 0.0 0.0 0.00 0.00 0.00 50 1016.3
20260904165539 87 301 0.0 0.0 0.00 0.00 0.00 50 1016.3
20260904165039 87 305 0.0 1.0 0.00 0.00 0.00 49 1016.3
20260904164539 87 213 0.0 2.0 0.00 0.00 0.00 49 1016.3
20260904164042 87 330 0.0 2.0 0.00 0.00 0.00 49 1016.3
20260904163539 88 256 0.0 2.0 0.00 0.00 0.00 47 1016.3
20260904163039 88 341 0.0 1.0 0.00 0.00 0.00 46 1016.2
20260904162539 88 211 0.0 2.0 0.00 0.00 0.00 47 1016.2
20260904162039 88 348 0.0 1.0 0.00 0.00 0.00 48 1016.2
20260904161539 89 294 0.0 1.0 0.00 0.00 0.00 46 1016.2
20260904161039 89 265 0.0 1.0 0.00 0.00 0.00 46 1016.1
20260904160539 89 182 0.0 3.0 0.00 0.00 0.00 47 1016.1
20260904160039 89 211 0.0 5.0 0.00 0.00 0.00 49 1016.1
20260904155539 89 229 0.0 4.0 0.00 0.00 0.00 49 1016.1
20260904155039 89 201 2.0 5.0 0.00 0.00 0.00 48 1016.2
20260904154539 89 222 1.0 7.0 0.00 0.00 0.00 47 1016.2
20260904154039 89 202 0.0 4.0 0.00 0.00 0.00 45 1016.2
20260904153541 89 189 0.0 3.0 0.00 0.00 0.00 46 1016.2
20260904153039 89 251 0.0 6.0 0.00 0.00 0.00 41 1016.3
20260904152539 89 217 0.0 7.0 0.00 0.00 0.00 46 1016.3
20260904152039 89 234 1.0 4.0 0.00 0.00 0.00 46 1016.4
20260904151542 89 270 0.0 7.0 0.00 0.00 0.00 47 1016.3
20260904151039 89 242 4.0 7.0 0.00 0.00 0.00 47 1016.3
20260904150539 90 229 2.0 3.0 0.00 0.00 0.00 48 1016.3
20260904150039 90 209 2.0 8.0 0.00 0.00 0.00 47 1016.3
20260904145539 90 198 0.0 4.0 0.00 0.00 0.00 49 1016.2
20260904145039 89 29 0.0 2.0 0.00 0.00 0.00 51 1016.2
20260904144539 89 153 0.0 8.0 0.00 0.00 0.00 50 1016.3
20260904144039 90 210 3.0 5.0 0.00 0.00 0.00 49 1016.3
20260904143542 90 203 1.0 5.0 0.00 0.00 0.00 52 1016.3
20260904143039 89 327 0.0 4.0 0.00 0.00 0.00 53 1016.4
20260904142545 90 167 0.0 6.0 0.00 0.00 0.00 51 1016.5
20260904142039 89 190 0.0 7.0 0.00 0.00 0.00 52 1016.5
20260904141539 89 298 0.0 3.0 0.00 0.00 0.00 50 1016.5
20260904141039 90 221 3.0 9.0 0.00 0.00 0.00 48 1016.5
20260904140539 90 234 6.0 7.0 0.00 0.00 0.00 51 1016.6
20260904140039 90 163 0.0 6.0 0.00 0.00 0.00 49 1016.6
20260904135539 90 239 0.0 5.0 0.00 0.00 0.00 47 1016.6
20260904135039 90 40 0.0 8.0 0.00 0.00 0.00 45 1016.5
20260904134539 90 257 1.0 9.0 0.00 0.00 0.00 41 1016.6
20260904134039 90 274 4.0 11.0 0.00 0.00 0.00 43 1016.5
20260904133542 90 215 0.0 8.0 0.00 0.00 0.00 45 1016.5
20260904133042 90 219 3.0 10.0 0.00 0.00 0.00 43 1016.5
20260904132539 90 207 1.0 8.0 0.00 0.00 0.00 46 1016.5
20260904132039 90 168 0.0 9.0 0.00 0.00 0.00 45 1016.6
20260904131539 90 163 1.0 4.0 0.00 0.00 0.00 47 1016.6
20260904131039 91 95 2.0 10.0 0.00 0.00 0.00 47 1016.6
20260904130539 90 302 1.0 7.0 0.00 0.00 0.00 46 1016.6
20260904130039 90 250 3.0 10.0 0.00 0.00 0.00 46 1016.7
20260904125539 90 180 3.0 12.0 0.00 0.00 0.00 40 1016.7
20260904125042 90 294 0.0 7.0 0.00 0.00 0.00 44 1016.7
20260904124539 90 187 2.0 7.0 0.00 0.00 0.00 45 1016.7
20260904124039 90 323 2.0 11.0 0.00 0.00 0.00 42 1016.7
20260904123539 91 227 0.0 9.0 0.00 0.00 0.00 39 1016.9
20260904123039 91 159 4.0 5.0 0.00 0.00 0.00 44 1016.8
20260904122539 90 176 0.0 3.0 0.00 0.00 0.00 45 1016.9
20260904122039 90 196 0.0 9.0 0.00 0.00 0.00 42 1016.9
20260904121539 91 227 4.0 10.0 0.00 0.00 0.00 39 1017.0
20260904121039 91 179 0.0 7.0 0.00 0.00 0.00 42 1017.0
20260904120539 91 211 0.0 8.0 0.00 0.00 0.00 43 1017.0
20260904120039 91 220 0.0 10.0 0.00 0.00 0.00 40 1017.0
20260904115539 91 237 0.0 10.0 0.00 0.00 0.00 38 1017.1
20260904115039 91 229 3.0 4.0 0.00 0.00 0.00 40 1017.0
20260904114539 90 219 0.0 10.0 0.00 0.00 0.00 43 1017.1
20260904114042 90 200 3.0 8.0 0.00 0.00 0.00 40 1017.0
20260904113539 90 163 2.0 9.0 0.00 0.00 0.00 42 1017.0
20260904113039 90 166 3.0 10.0 0.00 0.00 0.00 43 1017.2
20260904112539 90 162 0.0 5.0 0.00 0.00 0.00 42 1017.2
20260904112039 90 188 1.0 9.0 0.00 0.00 0.00 42 1017.2
20260904111542 90 159 5.0 9.0 0.00 0.00 0.00 41 1017.2
20260904111039 90 175 1.0 11.0 0.00 0.00 0.00 41 1017.1
20260904110539 90 205 3.0 12.0 0.00 0.00 0.00 41 1017.3
20260904110039 90 186 1.0 7.0 0.00 0.00 0.00 40 1017.2
20260904105542 90 232 2.0 9.0 0.00 0.00 0.00 41 1017.2
20260904105042 90 192 3.0 10.0 0.00 0.00 0.00 42 1017.2
20260904104542 90 165 4.0 6.0 0.00 0.00 0.00 42 1017.1
20260904104039 90 233 1.0 9.0 0.00 0.00 0.00 41 1017.1
20260904103542 90 198 0.0 8.0 0.00 0.00 0.00 40 1017.1
20260904103039 90 149 2.0 8.0 0.00 0.00 0.00 39 1017.1
20260904102539 91 209 4.0 14.0 0.00 0.00 0.00 38 1017.2
20260904102039 91 170 1.0 8.0 0.00 0.00 0.00 38 1017.1
20260904101539 90 194 0.0 15.0 0.00 0.00 0.00 37 1017.2
20260904101039 91 215 3.0 8.0 0.00 0.00 0.00 37 1017.2
20260904100539 90 212 1.0 9.0 0.00 0.00 0.00 37 1017.2
20260904100042 90 131 2.0 10.0 0.00 0.00 0.00 38 1017.2
20260904095539 91 212 1.0 9.0 0.00 0.00 0.00 38 1017.2
20260904095039 90 207 2.0 10.0 0.00 0.00 0.00 38 1017.2
20260904094539 90 209 2.0 8.0 0.00 0.00 0.00 37 1017.2
20260904094039 91 225 2.0 6.0 0.00 0.00 0.00 37 1017.2
20260904093539 91 104 0.0 8.0 0.00 0.00 0.00 38 1017.2
20260904093039 91 181 1.0 7.0 0.00 0.00 0.00 39 1017.2
20260904092539 91 192 0.0 9.0 0.00 0.00 0.00 39 1017.1
20260904092039 90 149 0.0 5.0 0.00 0.00 0.00 39 1017.1
20260904091539 90 156 3.0 11.0 0.00 0.00 0.00 40 1017.1
20260904091039 90 229 0.0 8.0 0.00 0.00 0.00 40 1017.2
20260904090539 90 157 7.0 10.0 0.00 0.00 0.00 37 1017.2
20260904090039 89 245 0.0 7.0 0.00 0.00 0.00 38 1017.1
20260904085539 89 196 0.0 7.0 0.00 0.00 0.00 39 1017.1
20260904085039 89 136 5.0 10.0 0.00 0.00 0.00 40 1017.1
20260904084539 88 182 6.0 8.0 0.00 0.00 0.00 41 1017.1
20260904084039 88 166 3.0 9.0 0.00 0.00 0.00 42 1017.0
20260904083539 88 137 8.0 9.0 0.00 0.00 0.00 41 1017.0
20260904083039 88 148 3.0 10.0 0.00 0.00 0.00 42 1017.0
20260904082542 88 97 1.0 13.0 0.00 0.00 0.00 41 1017.0
20260904082039 88 136 10.0 10.0 0.00 0.00 0.00 42 1016.9
20260904081539 88 164 5.0 9.0 0.00 0.00 0.00 41 1016.9
20260904081039 87 131 8.0 9.0 0.00 0.00 0.00 42 1016.9
20260904080539 87 198 6.0 8.0 0.00 0.00 0.00 42 1016.9
20260904080039 87 157 6.0 8.0 0.00 0.00 0.00 42 1016.8
20260904075539 87 157 3.0 8.0 0.00 0.00 0.00 42 1016.7
20260904075039 87 157 3.0 8.0 0.00 0.00 0.00 42 1016.7
20260904074539 86 144 3.0 10.0 0.00 0.00 0.00 44 1016.7
20260904074039 86 133 8.0 9.0 0.00 0.00 0.00 46 1016.6
20260904073539 85 126 7.0 9.0 0.00 0.00 0.00 48 1016.6
20260904073042 85 110 7.0 10.0 0.00 0.00 0.00 49 1016.6
20260904072539 85 169 5.0 5.0 0.00 0.00 0.00 51 1016.6
20260904072039 85 171 0.0 3.0 0.00 0.00 0.00 51 1016.5
20260904071539 84 324 0.0 2.0 0.00 0.00 0.00 53 1016.5
20260904071039 84 324 1.0 2.0 0.00 0.00 0.00 53 1016.4
20260904070539 83 324 0.0 1.0 0.00 0.00 0.00 54 1016.4
20260904070039 83 324 0.0 2.0 0.00 0.00 0.00 55 1016.4
20260904065539 82 324 1.0 3.0 0.00 0.00 0.00 55 1016.3
20260904065039 82 324 0.0 3.0 0.00 0.00 0.00 55 1016.2
20260904064542 81 324 0.0 2.0 0.00 0.00 0.00 56 1016.2
20260904064039 81 324 0.0 2.0 0.00 0.00 0.00 57 1016.1
20260904063539 80 324 0.0 4.0 0.00 0.00 0.00 58 1016.1
20260904063039 80 324 2.0 5.0 0.00 0.00 0.00 58 1016.0
20260904062539 79 355 2.0 6.0 0.00 0.00 0.00 58 1016.0
20260904062042 79 333 6.0 5.0 0.00 0.00 0.00 59 1015.9
20260904061539 79 297 4.0 6.0 0.00 0.00 0.00 59 1015.9
20260904061042 78 331 3.0 6.0 0.00 0.00 0.00 59 1015.9
20260904060539 78 324 5.0 6.0 0.00 0.00 0.00 59 1015.9
20260904060039 78 326 3.0 5.0 0.00 0.00 0.00 59 1015.9
20260904055539 78 321 5.0 5.0 0.00 0.00 0.00 60 1015.8
20260904055039 78 333 4.0 6.0 0.00 0.00 0.00 60 1015.8
20260904054541 78 348 4.0 5.0 0.00 0.00 0.00 60 1015.8
20260904054039 77 329 5.0 8.0 0.00 0.00 0.00 60 1015.7
20260904053539 77 315 2.0 5.0 0.00 0.00 0.00 60 1015.7
20260904053042 77 336 4.0 6.0 0.00 0.00 0.00 60 1015.7
20260904052539 77 0 1.0 10.0 0.00 0.00 0.00 60 1015.7
20260904052039 77 340 8.0 9.0 0.00 0.00 0.00 61 1015.6
20260904051539 76 329 3.0 5.0 0.00 0.00 0.00 61 1015.6
20260904051039 76 348 4.0 8.0 0.00 0.00 0.00 61 1015.6
20260904050539 76 333 2.0 8.0 0.00 0.00 0.00 62 1015.7
20260904050039 75 14 4.0 6.0 0.00 0.00 0.00 63 1015.6
20260904045539 75 331 2.0 6.0 0.00 0.00 0.00 63 1015.5
20260904045039 75 0 2.0 6.0 0.00 0.00 0.00 64 1015.4
20260904044542 75 355 5.0 10.0 0.00 0.00 0.00 65 1015.5
20260904044039 74 355 2.0 8.0 0.00 0.00 0.00 66 1015.5
20260904043539 74 338 2.0 8.0 0.00 0.00 0.00 66 1015.4
20260904043039 74 332 3.0 8.0 0.00 0.00 0.00 66 1015.4
20260904042539 74 341 5.0 8.0 0.00 0.00 0.00 66 1015.5
20260904042039 74 327 5.0 6.0 0.00 0.00 0.00 66 1015.4
20260904041539 74 328 2.0 5.0 0.00 0.00 0.00 66 1015.5
20260904041039 74 316 2.0 5.0 0.00 0.00 0.00 66 1015.4
20260904040539 74 327 2.0 3.0 0.00 0.00 0.00 66 1015.3
20260904040039 74 327 1.0 3.0 0.00 0.00 0.00 66 1015.3
20260904035539 74 327 1.0 2.0 0.00 0.00 0.00 66 1015.4
20260904035042 74 327 0.0 1.0 0.00 0.00 0.00 66 1015.4
20260904034539 74 327 0.0 1.0 0.00 0.00 0.00 66 1015.4
20260904034039 74 327 1.0 3.0 0.00 0.00 0.00 66 1015.4
20260904033539 74 327 2.0 4.0 0.00 0.00 0.00 65 1015.5
20260904033039 75 329 3.0 5.0 0.00 0.00 0.00 65 1015.4
20260904032539 75 329 2.0 4.0 0.00 0.00 0.00 65 1015.5
20260904032042 75 329 3.0 4.0 0.00 0.00 0.00 65 1015.4
20260904031540 75 328 1.0 2.0 0.00 0.00 0.00 65 1015.4
20260904031039 75 328 0.0 2.0 0.00 0.00 0.00 65 1015.3
20260904030539 75 328 1.0 2.0 0.00 0.00 0.00 65 1015.3
20260904030042 75 328 0.0 0.0 0.00 0.00 0.00 64 1015.3
20260904025539 75 328 0.0 1.0 0.00 0.00 0.00 64 1015.3
20260904025042 75 328 0.0 2.0 0.00 0.00 0.00 64 1015.3
20260904024539 76 328 0.0 2.0 0.00 0.00 0.00 64 1015.3
20260904024042 76 328 2.0 3.0 0.00 0.00 0.00 63 1015.4
20260904023539 76 328 3.0 3.0 0.00 0.00 0.00 63 1015.4
20260904023043 76 328 1.0 2.0 0.00 0.00 0.00 62 1015.4
20260904022539 76 328 2.0 3.0 0.00 0.00 0.00 62 1015.4
20260904022040 76 328 0.0 3.0 0.00 0.00 0.00 62 1015.4
20260904021539 77 328 1.0 3.0 0.00 0.00 0.00 61 1015.4
20260904021039 77 328 1.0 3.0 0.00 0.00 0.00 61 1015.4
20260904020539 77 327 2.0 4.0 0.00 0.00 0.00 60 1015.4
20260904020039 77 327 1.0 4.0 0.00 0.00 0.00 60 1015.4
20260904015542 77 327 2.0 4.0 0.00 0.00 0.00 60 1015.3
20260904015042 77 330 1.0 4.0 0.00 0.00 0.00 59 1015.2
20260904014539 78 322 4.0 6.0 0.00 0.00 0.00 58 1015.2
20260904014039 78 320 1.0 5.0 0.00 0.00 0.00 57 1015.2
20260904013539 78 321 4.0 6.0 0.00 0.00 0.00 57 1015.1
20260904013039 78 336 3.0 6.0 0.00 0.00 0.00 56 1015.1
20260904012539 78 348 2.0 3.0 0.00 0.00 0.00 57 1015.1
20260904012039 78 349 3.0 3.0 0.00 0.00 0.00 57 1015.0
20260904011539 78 13 3.0 6.0 0.00 0.00 0.00 59 1015.0
20260904011042 78 342 2.0 6.0 0.00 0.00 0.00 60 1015.0
20260904010542 78 325 5.0 6.0 0.00 0.00 0.00 61 1015.0
20260904010039 78 335 2.0 4.0 0.00 0.00 0.00 62 1015.0
20260904005539 77 337 2.0 5.0 0.00 0.00 0.00 63 1015.0
20260904005039 77 335 0.0 0.0 0.00 0.00 0.00 64 1015.1
20260904004539 77 335 0.0 3.0 0.00 0.00 0.00 64 1015.2
20260904004042 77 335 2.0 3.0 0.00 0.00 0.00 64 1015.2
20260904003542 78 334 1.0 2.0 0.00 0.00 0.00 64 1015.2
20260904003039 78 334 1.0 4.0 0.00 0.00 0.00 64 1015.2
20260904002539 78 313 3.0 4.0 0.00 0.00 0.00 64 1015.2
20260904002039 78 335 2.0 4.0 0.00 0.00 0.00 64 1015.3
20260904001539 78 355 4.0 5.0 0.00 0.00 0.00 64 1015.3
20260904001039 78 338 3.0 6.0 0.00 0.00 0.00 64 1015.3
20260904000539 79 325 0.0 4.0 0.00 0.00 0.00 64 1015.4
20260904000039 79 316 0.0 4.0 0.00 0.00 0.00 63 1015.3
20260903235539 79 317 1.0 3.0 0.00 0.00 0.00 62 1015.4
20260903235042 79 329 0.0 3.0 0.00 0.00 0.00 62 1015.3
20260903234539 79 306 0.0 1.0 0.00 0.00 0.00 62 1015.3
20260903234039 79 306 0.0 2.0 0.00 0.00 0.00 62 1015.3
20260903233541 79 304 0.0 3.0 0.00 0.00 0.00 62 1015.3
20260903233039 79 300 0.0 2.0 0.00 0.00 0.00 62 1015.2
20260903232539 79 155 0.0 2.0 0.00 0.00 0.00 62 1015.1
20260903232040 79 154 2.0 1.0 0.00 0.00 0.00 63 1015.1
20260903231542 78 154 1.0 2.0 0.00 0.00 0.00 62 1015.1
20260903231042 78 154 0.0 2.0 0.00 0.00 0.00 64 1015.1
20260903230539 77 154 0.0 3.0 0.00 0.00 0.00 65 1015.1
20260903230039 77 151 1.0 2.0 0.00 0.00 0.00 66 1015.1
20260903225539 77 151 2.0 2.0 0.00 0.00 0.00 67 1015.1
20260903225039 77 151 1.0 3.0 0.00 0.00 0.00 68 1015.1
20260903224539 77 151 2.0 7.0 0.00 0.00 0.00 67 1015.1
20260903224039 79 140 7.0 7.0 0.00 0.00 0.00 64 1015.1
20260903223539 80 32 2.0 4.0 0.00 0.00 0.00 62 1015.0
20260903223039 80 9 0.0 5.0 0.00 0.00 0.00 62 1015.0
20260903222539 80 340 4.0 5.0 0.00 0.00 0.00 62 1014.9
20260903222039 80 317 3.0 6.0 0.00 0.00 0.00 62 1014.9
20260903221539 80 313 5.0 6.0 0.00 0.00 0.00 62 1014.8
20260903221039 80 310 5.0 8.0 0.00 0.00 0.00 63 1014.7
20260903220539 80 355 4.0 8.0 0.00 0.00 0.00 63 1014.7
20260903220042 80 340 3.0 8.0 0.00 0.00 0.00 63 1014.7
20260903215539 79 346 3.0 7.0 0.00 0.00 0.00 64 1014.7
20260903215039 79 329 4.0 10.0 0.00 0.00 0.00 65 1014.7
20260903214539 79 327 3.0 10.0 0.00 0.00 0.00 65 1014.8
20260903214039 79 329 5.0 10.0 0.00 0.00 0.00 65 1014.8
20260903213539 80 325 3.0 10.0 0.00 0.00 0.00 65 1014.7
20260903213039 80 326 6.0 6.0 0.00 0.00 0.00 65 1014.8
20260903212539 80 321 4.0 10.0 0.00 0.00 0.00 65 1014.7
20260903212042 80 303 8.0 9.0 0.00 0.00 0.00 65 1014.6
20260903211539 80 332 3.0 9.0 0.00 0.00 0.00 65 1014.6
20260903211039 80 300 4.0 6.0 0.00 0.00 0.00 65 1014.7
20260903210539 80 328 3.0 10.0 0.00 0.00 0.00 65 1014.7
20260903210039 80 338 8.0 8.0 0.00 0.00 0.00 66 1014.6
20260903205542 80 330 2.0 9.0 0.00 0.00 0.00 66 1014.6
20260903205042 80 306 4.0 8.0 0.00 0.00 0.00 66 1014.6
20260903204542 80 322 4.0 8.0 0.00 0.00 0.00 66 1014.7
20260903204039 80 313 2.0 4.0 0.00 0.00 0.00 66 1014.7
20260903203539 80 297 0.0 5.0 0.00 0.00 0.00 66 1014.7
20260903203039 80 313 4.0 8.0 0.00 0.00 0.00 66 1014.5
20260903202539 80 320 4.0 9.0 0.00 0.00 0.00 66 1014.5
20260903202039 81 310 3.0 9.0 0.00 0.00 0.00 66 1014.5
20260903201542 81 338 5.0 10.0 0.00 0.00 0.00 66 1014.5